Tracking 18987 objects as of 25-Feb-2018
HD Live streaming from Space Station
objects crossing your sky now

COSMOS 1359

Track COSMOS 1359 now!
10-day predictions
COSMOS 1359 is classified as:


NORAD ID: 13162
Int'l Code: 1982-040C
Perigee: 1,438.5 km
Apogee: 1,488.1 km
Inclination: 74.0 °
Period: 115.0 minutes
Semi major axis: 7834 km
RCS: 0.7219 m2 (medium)
Launch date: May 6, 1982
Source: Commonwealth of Independent States (former USSR) (CIS)
Launch site: PLESETSK MISSILE AND SPACE COMPLEX (PKMTR)
aabbcc
Your satellite tracking list
Your tracking list is empty




NASA's NSSDC Master Catalog

Two Line Element Set (TLE):
1 13162U 82040C   18055.49303769 -.00000023 +00000-0 -40936-4 0  9990
2 13162 074.0143 324.5046 0031603 220.7126 191.1250 12.51993518637785
Source of the keplerian elements: AFSPC